星链-31660 (STARLINK-31660 )

导读

STARLINK-31660是美国SpaceX公司于2024年5月3日发射的星链第二代卫星,隶属于全球低轨卫星互联网星座。该卫星运行在近地轨道,配备高性能相控阵天线与激光星间链路,可提供高速低延迟宽带服务,助力拓展星链全球覆盖,服务偏远地区接入、移动互联及应急通信等场景,是SpaceX加速第二代星链部署的组成部分。

Basic Information
目录编号:
59642
目录名称:
STARLINK-31660
国际标识:
2024-082M
轨道中心:
EARTH
卫星名称:
星链-31660
卫星全名:
星链-31660 (STARLINK-31660 )
卫星状态:
在轨 (已飞行776 天)
发射日期:
2024-05-03 UTC
国别 :
美国 (US)
星等 :
--
Orbit Information
数据来源 国际轨道数据 AOE轨道数据
星历时间 2026-06-18T00:31:13+0800
12小时前
查看轨道信息
2026-06-16T11:00:00+0800
2天前
查看轨道信息
半长轴 6861.198km 6861.256km
偏心率 0.0002002 0.0000617
轨道倾角 43.004° 43.004°
近地点辐角 280.810° 216.015°
升交点赤经 254.700° 263.532°
平近点角 79.252° 176.687°
近地点 481.687km 482.695km
远地点 484.435km 483.543km
周期 94.267分钟 94.268分钟
每日圈数 15.275762 15.275569
Detailed Information
固有亮度:
5
最大亮度:
1.5
卫星平台:
Starlink v2.0 mini
覆盖范围:
全球
运营商:
太空探索技术公司
运营商所在国:
美国
制造商(研发单位):
太空探索技术公司
制造商所在国:
美国
使用方式:
暂无
Satellite Introduction
星链(Starlink)计划是由太空探索技术公司(SpaceX)提出的一个巨型低轨卫星互联网星座项目,计划在2019年至2024年间在太空搭建由约1.2万颗卫星组成的“星链”网络,其中1584颗将部署在地球上空550千米处的近地轨道,并从2020年开始工作。该卫星仍在工作。
2D Orbit Map
3D Orbit Map
Orbit Altitude Analysis Chart
Orbit Inclination Analysis Chart
Orbit Comprehensive Analysis Chart
View Comprehensive Chart